Weather History for KGED - November, 2013

Change the Weather History Date:

Saturday, November 23, 2013

  Actual Average Record
Temperature  
Mean Temperature 47 °F 46 °F  
Max Temperature 58 °F 56 °F 72 °F (1992)
Min Temperature 35 °F 37 °F 16 °F (1984)
Degree Days  
Heating Degree Days 18 19  
Month to date heating degree days 367 357  
Since 1 July heating degree days 610 643  
Cooling Degree Days 0 0  
Month to date cooling degree days 5 0  
Year to date cooling degree days 1396 1194  
Moisture  
Dew Point 29 °F    
Average Humidity 63    
Maximum Humidity 93    
Minimum Humidity 32    
Precipitation  
Precipitation 0.00 in 0.10 in 1.20 in (1953)
Month to date precipitation 1.15 2.57  
Year to date precipitation 48.56 39.69  
Sea Level Pressure  
Sea Level Pressure 30.05 in    
Wind  
Wind Speed 8 mph (NW)    
Max Wind Speed 20 mph    
Max Gust Speed 31 mph    
Visibility 10 miles    
Events      
T = Trace of Precipitation, MM = Missing Value Source: NWS Daily Summary

Daily Weather History Graph

Daily Weather History Graph

Search for Another Location

Airport or City:

Trip Planner

Search our weather history database for the weather conditions in past years. The results will help you decide how hot, cold, wet, or windy it might be!

Date:

Astronomy

Nov. 23, 2013 Rise Set
Actual Time 6:52 AM EST 4:43 PM EST
Civil Twilight 6:23 AM EST 5:11 PM EST
Nautical Twilight 5:51 AM EST 5:44 PM EST
Astronomical Twilight 5:19 AM EST 6:16 PM EST
Moon 10:07 PM EST 11:09 AM EST
Length of Visible Light 10h 48m
Length of Day
9h 50m
Waning Gibbous, 70% of the Moon is Illuminated
Nov 23
Waning Gibbous
Nov 25
Last Quarter
Dec 2
New
Dec 9
First Quarter
Dec 17
Full

Hourly Weather History & Observations

Time (EST) Temp. Windchill Dew Point Humidity Pressure Visibility Wind Dir Wind Speed Gust Speed Precip Events Conditions
12:54 AM 57.9 °F - 55.0 °F 90% 29.99 in 10.0 mi Variable 5.8 mph - N/A   Scattered Clouds
1:54 AM 57.0 °F - 52.0 °F 83% 30.01 in 10.0 mi NNW 6.9 mph - N/A   Mostly Cloudy
2:54 AM 55.0 °F - 48.9 °F 80% 30.02 in 10.0 mi Variable 5.8 mph - N/A   Mostly Cloudy
3:54 AM 54.0 °F - 46.9 °F 77% 30.02 in 10.0 mi NNW 6.9 mph - N/A   Overcast
4:54 AM 52.0 °F - 42.1 °F 69% 30.04 in 10.0 mi NW 6.9 mph - N/A   Overcast
5:54 AM 48.9 °F - 35.1 °F 59% 30.06 in 10.0 mi NW 8.1 mph 19.6 mph N/A   Mostly Cloudy
6:54 AM 46.0 °F 43.1 °F 34.0 °F 63% 30.08 in 10.0 mi Variable 5.8 mph - N/A   Clear
7:54 AM 45.0 °F 41.2 °F 32.0 °F 60% 30.09 in 10.0 mi Variable 6.9 mph 17.3 mph N/A   Clear
8:54 AM 46.0 °F 40.2 °F 30.9 °F 56% 30.11 in 10.0 mi NW 12.7 mph 23.0 mph N/A   Clear
9:54 AM 46.0 °F 41.4 °F 28.0 °F 50% 30.11 in 10.0 mi NNW 9.2 mph 18.4 mph N/A   Clear
10:54 AM 46.9 °F - 28.9 °F 50% 30.10 in 10.0 mi WNW 11.5 mph - N/A   Clear
11:54 AM 48.9 °F - 27.0 °F 43% 30.06 in 10.0 mi WNW 5.8 mph - N/A   Clear
12:54 PM 51.1 °F - 25.0 °F 36% 30.04 in 10.0 mi NNW 10.4 mph 17.3 mph N/A   Clear
1:54 PM 50.0 °F - 21.9 °F 33% 30.02 in 10.0 mi WNW 8.1 mph 17.3 mph N/A   Clear
2:54 PM 50.0 °F - 21.9 °F 33% 30.02 in 10.0 mi WNW 9.2 mph - N/A   Clear
3:54 PM 50.0 °F - 21.9 °F 33% 30.02 in 10.0 mi WNW 9.2 mph 17.3 mph N/A   Clear
4:54 PM 46.9 °F - 19.9 °F 34% 30.04 in 10.0 mi NW 3.5 mph - N/A   Clear
5:54 PM 46.0 °F 43.1 °F 21.9 °F 39% 30.04 in 10.0 mi NW 5.8 mph - N/A   Clear
6:54 PM 44.1 °F 41.5 °F 23.0 °F 43% 30.04 in 10.0 mi NW 4.6 mph - N/A   Clear
7:54 PM 43.0 °F 40.3 °F 23.0 °F 45% 30.05 in 10.0 mi NW 4.6 mph - N/A   Clear
8:54 PM 43.0 °F 37.2 °F 19.0 °F 38% 30.05 in 10.0 mi WNW 10.4 mph 20.7 mph N/A   Clear
9:54 PM 41.0 °F 33.5 °F 17.1 °F 38% 30.06 in 10.0 mi NW 13.8 mph 25.3 mph N/A   Clear
10:54 PM 37.9 °F 30.9 °F 18.0 °F 45% 30.10 in 10.0 mi NNW 10.4 mph 21.9 mph N/A   Clear
11:54 PM 35.1 °F 26.4 °F 14.0 °F 42% 30.12 in 10.0 mi NW 12.7 mph 26.5 mph N/A   Clear